This is the latest recevied weather packets stored in our database for station/object W3BRL. If no packets are shown the sender has not sent any weather packets the latest 10 day(s).
| Time | Temp. | Humidity | Pressure | Rain* | Wind** | Luminosity | Snow |
|---|---|---|---|---|---|---|---|
| 1778047619 | 14.44° C | 84% | 1006.1 hPa | 0 mm | - | 0 W/m² | - |
| 1778047315 | 14.44° C | 83% | 1006.1 hPa | 0 mm | - | 0 W/m² | - |
| 1778047012 | 14.44° C | 82% | 1006 hPa | 1.27 mm | - | 0 W/m² | - |
| 1778046709 | 14.44° C | 82% | 1006.1 hPa | 1.27 mm | - | 0 W/m² | - |
| 1778046406 | 14.44° C | 81% | 1006.1 hPa | 1.27 mm | - | 0 W/m² | - |
| 1778046102 | 15° C | 81% | 1006.2 hPa | 0 mm | - | 0 W/m² | - |
| 1778045800 | 15° C | 80% | 1006.3 hPa | 1.78 mm | - | 0 W/m² | - |
| 1778045498 | 15° C | 79% | 1006.4 hPa | 3.05 mm | - | 0 W/m² | - |
| 1778045196 | 15° C | 77% | 1006.5 hPa | 1.27 mm | - | 0 W/m² | - |
| 1778044894 | 15.56° C | 75% | 1006.6 hPa | 1.78 mm | - | 0 W/m² | - |
| 1778044591 | 15.56° C | 73% | 1006.4 hPa | 1.78 mm | - | 0 W/m² | - |
| 1778044287 | 16.11° C | 71% | 1006.5 hPa | 0 mm | - | 0 W/m² | - |
| 1778043986 | 16.67° C | 68% | 1006.7 hPa | 0 mm | - | 0 W/m² | - |
| 1778043682 | 16.67° C | 66% | 1006.7 hPa | 0 mm | - | 0 W/m² | - |
| 1778043379 | 17.22° C | 63% | 1006.6 hPa | 0 mm | - | 0 W/m² | - |
| 1778043075 | 17.78° C | 59% | 1006.7 hPa | 0 mm | - | 0 W/m² | - |
| 1778042773 | 18.33° C | 56% | 1006.6 hPa | 0 mm | - | 0 W/m² | - |
| 1778042470 | 18.89° C | 53% | 1006.4 hPa | 0 mm | - | 0 W/m² | - |
| 1778042167 | 18.89° C | 51% | 1006.4 hPa | 0 mm | - | 0 W/m² | - |
| 1778041866 | 18.89° C | 50% | 1006.1 hPa | 0 mm | - | 0 W/m² | - |
| 1778041564 | 19.44° C | 49% | 1006.2 hPa | 0 mm | - | 0 W/m² | - |
| 1778041262 | 18.89° C | 49% | 1005.9 hPa | 0 mm | - | 0 W/m² | - |
| 1778040960 | 18.89° C | 49% | 1005.6 hPa | 0 mm | - | 0 W/m² | - |
| 1778040656 | 18.89° C | 49% | 1005.8 hPa | 0 mm | - | 0 W/m² | - |
| 1778040355 | 18.89° C | 49% | 1005.8 hPa | 0 mm | - | 0 W/m² | - |
* Rain latest hour (hover to see other rain measurements)
** Current wind speed in m/s (hover to see current wind gust speed)